Flag for Germany Weather for the Past 2 Weeks in Landau in der Pfalz, Rhineland-Palatinate, Germany

Now
46 °F

Passing clouds.


Feels Like: 39 °F
Forecast: 33 / 41 °F
Wind: 21 mph from Southwest

Location: Karlsruhe - Baden Wurttemberg

Current Time: Feb 14, 2016 at 5:18:24 AM

Latest Report: Feb 14, 2016 at 4:50 AM


Visibility: N/A

Pressure: 29.15 "Hg

Humidity: 71%

Dew point: 37 °F

Location of Landau in der PfalzLocation

Historic Weather in Landau in der Pfalz — Graph

°F

Landau in der Pfalz Temperature Yesterday

Maximum temperature yesterday: 48 °F (at 1:20 PM)
Minimum temperature yesterday: 37 °F (at 5:20 AM)
Average temperature yesterday: 44 °F

High & Low Weather Summary for the Past Weeks

 TemperatureHumidityPressure
High59 °F (Feb 6, 1:50 PM)100% (Feb 4, 7:50 PM)30.39 "Hg (Feb 4, 7:50 PM)
Low30 °F (Feb 6, 5:50 AM)39% (Feb 6, 3:50 PM)29.06 "Hg (Feb 13, 8:50 PM)
Average45 °F78%29.85 "Hg
* Reported Jan 29 11:20 PM — Feb 13 11:20 PM, Landau in der Pfalz, Weather by CustomWeather, © 2016

Note: Actual official high and low records may vary slightly from our data, if they occured in-between our weather recording intervals... More about our weather records

Advertising

Landau in der Pfalz Weather History for the Previous 24 Hours

 ConditionsComfort  
Time TempWeatherWind HumidityBarometerVisibility
11:20 PM
Sat, Feb 13
46 °FLight rain. Passing clouds.23 mph82%29.06 "Hg6 mi
10:50 PM46 °FRain. Passing clouds.21 mph87%29.06 "Hg6 mi
9:50 PM46 °FRain. Passing clouds.21 mph76%29.06 "Hg6 mi
9:20 PM46 °FPassing clouds.25 mph76%29.06 "HgN/A
8:50 PM46 °FScattered showers. Passing clouds.20 mph82%29.06 "HgN/A
8:20 PM46 °FLight rain. Passing clouds.18 mph82%29.09 "Hg5 mi
7:50 PM46 °FRain. Passing clouds.20 mph82%29.09 "Hg4 mi
7:20 PM48 °FRain. Passing clouds.21 mph76%29.09 "Hg4 mi
6:50 PM48 °FPassing clouds.20 mph76%29.09 "HgN/A
6:20 PM48 °FPartly cloudy.16 mph76%29.09 "HgN/A
5:50 PM48 °FScattered showers. Passing clouds.17 mph76%29.09 "HgN/A
5:20 PM46 °FScattered showers. Partly sunny.10 mph82%29.09 "HgN/A
4:50 PM46 °FDrizzle. Partly sunny.3 mph76%29.12 "Hg5 mi
4:20 PM46 °FLight rain. Broken clouds.2 mph76%29.12 "HgN/A
3:52 PM48 °FRain showers. Partly sunny.3 mph71%29.12 "HgN/A
3:20 PM46 °FLight rain. Partly sunny.2 mph76%29.15 "HgN/A
2:50 PM46 °FPartly sunny.3 mph71%29.15 "HgN/A
2:20 PM46 °FPartly sunny.13 mph71%29.18 "HgN/A
1:50 PM48 °FLight rain. Broken clouds.14 mph66%29.21 "HgN/A
1:20 PM48 °FDrizzle. Broken clouds.14 mph71%29.21 "HgN/A
12:50 PM46 °FBroken clouds.6 mph82%29.24 "HgN/A
12:20 PM46 °FScattered showers. Broken clouds.6 mph82%29.27 "HgN/A
11:51 AM45 °FSprinkles. Partly sunny.5 mph87%29.27 "HgN/A
11:20 AM43 °FBroken clouds.3 mph87%29.30 "HgN/A
10:54 AM43 °FPartly sunny.2 mph87%29.30 "HgN/A
10:20 AM41 °FPartly sunny.2 mph93%29.30 "HgN/A
9:56 AM41 °FPartly sunny.3 mph87%29.33 "HgN/A
9:20 AM41 °FPartly sunny.6 mph87%29.33 "HgN/A
8:50 AM39 °FPartly sunny.5 mph93%29.36 "HgN/A
8:20 AM39 °FPartly sunny.3 mph93%29.36 "Hg5 mi
7:50 AM37 °FPartly sunny.2 mph100%29.36 "Hg4 mi
7:20 AM37 °FPassing clouds.2 mph93%29.36 "Hg4 mi
6:50 AM37 °FPassing clouds.6 mph100%29.36 "Hg4 mi
6:20 AM37 °FSprinkles. Passing clouds.6 mph93%29.36 "Hg5 mi
5:50 AM37 °FPassing clouds.6 mph93%29.36 "Hg5 mi
5:20 AM37 °FPassing clouds.7 mph93%29.36 "Hg5 mi
Weather by CustomWeather, © 2016

See weather overviewHow to use our weather pages